Location: Gipe Farm
(40.9466°N, 95.5370°W)
Time: 09:29:50
(UTC-05:00)

Daily predictions for brighter satellites

Satellite Brightness Start Highest point End
(mag) Time Altitude Azimuth Time Altitude Azimuth Time Altitude Azimuth
Cosmos 1666 3.5 21:12:28 10° N 21:16:04 35° ENE 21:19:39 10° SE
Cosmos 1500 4.4 21:13:42 10° NNW 21:17:26 46° W 21:21:10 10° SSW
SL-16 R/B 2.2 21:12:13 10° SSW 21:17:51 82° ESE 21:23:32 10° NNE
Cosmos 1939 Rocket 3.5 21:18:25 10° SE 21:22:20 41° ENE 21:26:15 10° N
Milstar 3 Cent rocket 4.1 21:16:34 10° WSW 21:22:56 23° SSW 21:27:17 10° SSE
COSMOS 2455 3.8 21:20:52 10° SSE 21:25:43 26° ESE 21:30:35 10° NE
Cosmos 1743 3.4 21:26:17 10° NNW 21:30:04 57° W 21:33:49 10° S
Cosmos 2228 3.2 21:25:50 10° N 21:30:12 57° E 21:34:32 10° SSE
Lacrosse 5 rocket 2.9 21:27:35 10° WSW 21:31:13 38° NW 21:35:01 10° NNE
APEX 3.7 21:28:11 10° NNW 21:32:11 66° ENE 21:37:25 10° SSE
Cosmos 1025 Rocket 4.2 21:28:12 10° SSW 21:32:26 46° WNW 21:36:40 10° N
ATLAS 3B R/B 4.1 21:30:37 10° SSE 21:35:53 20° ESE 21:41:07 10° ENE
Meteor 1-23 Rocket 4.3 21:32:47 10° S 21:38:25 86° W 21:44:11 10° N
Centaur D AC-28 3.7 21:39:04 10° SW 21:40:38 12° SSW 21:42:06 10° S
Cosmos 1892 Rocket 4.3 21:36:31 10° SSW 21:40:52 56° W 21:45:17 10° N
ERS-1 Rocket 3.2 21:38:40 10° S 21:43:40 70° WSW 21:48:41 10° NNW
Cosmos 1891 Rocket 4.5 21:37:58 10° N 21:44:07 71° E 21:50:08 10° SSE
USA 186 4.1 21:42:57 10° SW 21:45:03 18° W 21:47:04 10° NW
Cosmos 1603 3.8 21:41:24 10° S 21:46:50 54° ESE 21:52:18 10° NNE
Nimbus 7 Rocket 4.4 21:41:28 10° NNE 21:47:27 72° ESE 21:53:19 10° S
Envisat 3.1 21:42:43 10° SSE 21:47:44 67° ENE 21:52:47 10° N
Abrixas rocket 2.5 21:45:38 10° WNW 21:49:02 63° SSW 21:51:25 18° SE
Meteor 2-9 Rocket 4.4 21:45:59 10° NNW 21:51:40 81° W 21:57:28 10° S
USA 234 3.7 21:45:57 11° ESE 21:52:10 58° NE 21:58:36 10° NW
Okean 2 4.2 21:50:12 10° SSW 21:54:18 54° W 21:58:25 10° N
Meteor 2-4 Rocket 4.5 21:52:16 10° SSW 21:58:02 59° WNW 22:03:55 10° N
Lacrosse 4 Rocket 3.5 21:59:12 11° E 21:59:12 11° E 21:59:43 10° E
YAOGAN 6 3.3 22:02:20 21° SE 22:04:21 39° ENE 22:07:52 10° N
UNK 4.2 21:59:16 10° NNE 22:04:38 63° ESE 22:10:17 10° S
ISS -2.8 22:03:21 10° SSW 22:06:21 35° SE 22:09:22 10° ENE
PSLV R/B 3.5 22:03:13 10° WSW 22:06:41 53° SSE 22:09:23 15° E
BREEZE-M DEB (TANK) 2.1 22:02:23 10° SW 22:06:58 82° SSE 22:09:08 10° ENE
Timation 1 Rocket 4.4 22:02:28 10° NNW 22:08:30 79° WSW 22:13:20 16° SSE
Tsikada Rocket 4.0 22:02:55 10° S 22:09:19 83° E 22:15:44 10° N
CZ-2C R/B 3.6 22:08:35 10° WSW 22:09:25 11° W 22:10:16 10° WNW
Cosmos 1943 3.8 22:07:21 15° SSE 22:11:28 35° ESE 22:16:35 10° NE
CZ-4 R/B 4.4 22:07:42 10° NNE 22:12:24 40° E 22:15:27 20° SSE
Cosmos 1238 4.2 22:11:51 23° S 22:13:38 60° E 22:16:36 10° NNE
Cosmos 1461 3.1 22:11:59 10° NW 22:16:14 63° WSW 22:18:40 23° SSE
SPOT 5 2.9 22:15:35 15° S 22:19:08 67° WSW 22:23:28 10° NNW
Cosmos 1943 Rocket 4.1 22:16:24 10° N 22:20:05 18° NE 22:23:31 11° E
MetOp-A 4.1 22:16:40 18° SSE 22:20:46 90° ENE 22:26:11 10° NNW
CZ-4 SHROUD 4.3 22:19:33 17° SSW 22:21:42 42° W 22:24:44 10° NNW
Cosmos 1602 Rocket 4.3 22:19:32 10° SSW 22:23:55 53° W 22:28:19 10° N
Cosmos 1992 Rocket 4.2 22:20:15 10° NNW 22:25:25 58° ENE 22:28:12 27° SE
Cosmos 1825 Rocket 3.7 22:26:46 27° SSE 22:28:59 54° E 22:33:19 10° NNE
SL-08 RB Rocket 4.1 22:27:19 28° SE 22:29:24 49° ENE 22:33:47 10° N
H-2A R/B 3.1 22:28:49 22° ESE 22:30:55 30° ENE 22:35:17 10° N
Cosmos 1812 Rocket 4.0 22:30:24 10° NNW 22:34:43 60° W 22:37:38 20° S
SPOT 1/Viking Rocket 3.5 22:36:22 25° SSE 22:39:25 86° WSW 22:44:36 10° NNW
Terra 2.8 22:39:33 26° ESE 22:41:12 34° ENE 22:45:28 10° N
Geosat 4.1 22:36:41 10° NE 22:41:37 54° ESE 22:44:24 25° S
Cosmos 1190 Rocket 4.1 22:40:31 25° S 22:43:29 58° ESE 22:48:42 10° NNE
USA 245 4.4 22:43:14 23° S 22:47:13 74° WSW 22:52:32 10° NNW
CZ-4C R/B 3.5 22:48:45 42° SE 22:50:05 71° ENE 22:54:12 10° N
SeaSat 1 3.5 22:47:09 19° SSW 22:50:06 37° WSW 22:54:41 10° NW
Cosmos 1634 Rocket 3.9 22:43:58 10° N 22:50:10 86° E 22:53:37 28° S
ARGOS 3.2 22:52:05 30° S 22:54:53 79° WSW 23:00:21 10° NNW
Atlas Centaur 2 3.5 22:47:46 10° WSW 22:54:59 39° S 22:58:15 29° SE
Cosmos 2369 Rocket 2.2 22:50:16 10° NNW 22:55:58 78° ENE 22:58:17 37° SE
CZ-4B R/B 4.3 22:52:25 10° N 22:57:21 52° WNW 23:02:21 10° SSW
Cosmos 676 Rocket 4.3 22:58:33 39° SE 22:59:54 48° ESE 23:05:02 10° NNE
NOAA 11 4.3 23:04:33 32° S 23:07:05 68° WSW 23:12:30 10° NNW
Cosmos 489 Rocket 4.4 23:04:44 26° S 23:08:33 76° ESE 23:14:55 10° NNE
Cosmos 1953 3.3 23:06:31 10° NNE 23:10:05 33° ENE 23:10:05 33° ENE
COSMOS 2455 3.7 23:05:28 10° SW 23:11:18 51° NW 23:17:09 10° NNE
Cosmos 1953 Rocket 3.8 23:12:41 35° SSW 23:14:22 64° W 23:18:47 10° N
Cosmos 2279 Rocket 3.9 23:08:26 10° N 23:14:43 78° E 23:17:07 40° SSE
Cosmos 2263 4.1 23:14:11 10° NNW 23:19:49 87° ENE 23:21:29 48° SSE
Meteor 1-22 Rocket 4.4 23:14:31 10° NNW 23:20:02 69° W 23:22:21 37° SSW
IGS 5A 3.3 23:20:25 70° SE 23:20:46 76° ENE 23:24:56 10° N
COSMOS 2406 3.9 23:21:08 34° ESE 23:21:08 34° ESE 23:26:10 10° NE
ATLAS 3B R/B 2.9 23:18:06 10° SW 23:25:50 85° WNW 23:33:25 10° NNE
SL-27 R/B 4.2 23:29:07 23° NE 23:29:07 23° NE 23:30:37 10° NNE
Cosmos 1932 4.5 23:27:11 46° SSE 23:28:28 55° ESE 23:34:31 10° NE
Cosmos 407 Rocket 3.8 23:29:34 28° SW 23:32:20 65° WNW 23:37:33 10° NNE
Cosmos 2180 Rocket 4.4 23:26:24 10° N 23:32:41 89° E 23:34:48 45° S
Cosmos 1346 Rocket 4.0 23:31:31 29° WSW 23:32:42 37° WNW 23:36:23 10° N
Cosmos-2242 2.9 23:30:36 10° N 23:35:02 84° E 23:35:15 79° SE
USA 234 3.8 23:33:17 34° SSW 23:35:16 43° SW 23:41:28 10° WNW
Lacrosse 4 Rocket 1.8 23:35:27 42° WSW 23:36:28 56° WNW 23:40:31 10° NNE
Kosmos-1675 4.1 23:36:19 41° WSW 23:37:27 69° NW 23:47:04 10° NNE
Cosmos 1607 4.5 23:40:07 38° ESE 23:40:07 38° ESE 23:45:35 10° NE
ISS -1.4 23:39:53 10° W 23:42:49 30° NNW 23:45:46 10° NE
Cosmos 2208 Rocket 4.4 23:40:23 10° N 23:45:25 49° ENE 23:46:06 46° E
Cosmos 1842 3.8 23:48:55 52° W 23:48:57 52° W 23:52:48 10° N
CZ-4B R/B 4.1 23:50:52 13° ENE 23:50:52 13° ENE 23:52:18 10° NE
Cosmos 1954 Rocket 4.1 23:49:59 50° SW 23:51:21 77° WNW 23:56:41 10° NNE
CARTOSAT-1 4.4 23:51:37 39° WSW 23:51:57 39° W 23:56:03 10° NNW
Cosmos 1544 4.3 23:49:20 10° N 23:52:01 35° NE 23:52:01 35° NE
Cosmos 1758 3.6 23:51:04 10° NNW 23:54:51 68° NW 23:54:51 68° NW
